TIANMU-1 20

Last updated on Tue Jan 14 2025 00:02:18 GMT+0000 (Coordinated Universal Time)

1 58661U 23208B 25013.56666615 .00008513 00000+0 37928-3 0 9991 2 58661 97.4133 127.7105 0008941 9.7820 350.3588 15.21647825 58103
UTC large
Height (km)
Speed (km/s)
/
Latitude / Longitude
Inclination (degrees)
Orbital Period (minutes)
Azimuth
Elevation
Range (km)
Doppler Factor

Next 0 passes for location: London (51.5072 / 0.1276)

Sorry there are no passes over London.